Petersburg, AK

2:28 AM AKST on December 13, 2017 (GMT -0900)
Johnson Petersburg

Weather History for PAPG - February, 2014

Change the Weather History Date:

Sunday, February 2, 2014

  Actual Average Record
Temperature  
Mean Temperature 28 °F -  
Max Temperature 35 °F 34 °F 51 °F (1998)
Min Temperature 21 °F 26 °F 10 °F (2004)
Degree Days  
Heating Degree Days 37    
Moisture  
Dew Point 22 °F    
Average Humidity 82    
Maximum Humidity 93    
Minimum Humidity 70    
Precipitation  
Precipitation 0.00 in - - ()
Sea Level Pressure  
Sea Level Pressure 30.31 in    
Wind  
Wind Speed 2 mph (SW)    
Max Wind Speed 5 mph    
Max Gust Speed -    
Visibility 10 miles    
Events      
Averages and records for this station are not official NWS values.
T = Trace of Precipitation, MM = Missing Value Source: NWS Daily Summary

Daily Weather History Graph

Daily Weather History Graph

Search for Another Location

Airport or City:

Trip Planner

Search our weather history database for the weather conditions in past years. The results will help you decide how hot, cold, wet, or windy it might be!

Date:

Astronomy

Feb. 02, 2014 Rise Set
Actual Time 7:47 AM AKST 4:24 PM AKST
Civil Twilight 7:05 AM AKST 5:06 PM AKST
Nautical Twilight 6:19 AM AKST 5:52 PM AKST
Astronomical Twilight 5:35 AM AKST 6:36 PM AKST
Moon 8:30 AM AKST (2/2) 9:11 PM AKST (2/2)
Length of Visible Light 10h 00m
Length of Day
8h 36m
Waxing Crescent, 12% of the Moon is Illuminated
Feb 2
Waxing Crescent
Feb 6
First Quarter
Feb 14
Full
Feb 22
Last Quarter
Feb 28
New

Hourly Weather History & Observations

Time (AKST) Temp. Windchill Dew Point Humidity Pressure Visibility Wind Dir Wind Speed Gust Speed Precip Events Conditions
1:16 AM 24.8 °F 20.5 °F 19.4 °F 80% 30.28 in 10.0 mi WSW 3.5 mph - N/A   Clear
2:56 AM 24.8 °F - 21.2 °F 86% 30.29 in 10.0 mi Calm Calm - N/A   Clear
3:36 AM 24.8 °F 19.1 °F 21.2 °F 86% 30.29 in 10.0 mi West 4.6 mph - N/A   Clear
3:56 AM 23.0 °F 17.0 °F 19.4 °F 86% 30.29 in 10.0 mi WSW 4.6 mph - N/A   Clear
4:16 AM 26.6 °F 22.6 °F 23.0 °F 86% 30.29 in 10.0 mi SW 3.5 mph - N/A   Clear
4:36 AM 23.0 °F - 17.6 °F 80% 30.28 in 10.0 mi Calm Calm - N/A   Clear
4:56 AM 24.8 °F - 21.2 °F 86% 30.28 in 10.0 mi Calm Calm - N/A   Clear
5:16 AM 23.0 °F - 19.4 °F 86% 30.28 in 10.0 mi Calm Calm - N/A   Clear
5:56 AM - - - N/A% 30.27 in - SW 3.5 mph - N/A   Unknown
6:16 AM 23.0 °F 18.4 °F 19.4 °F 86% 30.27 in 10.0 mi WSW 3.5 mph - N/A   Partly Cloudy
6:36 AM 23.0 °F - 21.2 °F 93% 30.28 in 10.0 mi Calm Calm - N/A   Partly Cloudy
7:16 AM 23.0 °F - 19.4 °F 86% 30.28 in 10.0 mi Calm Calm - N/A   Partly Cloudy
7:36 AM 23.0 °F 18.4 °F 17.6 °F 80% 30.28 in 10.0 mi WSW 3.5 mph - N/A   Partly Cloudy
7:56 AM 21.2 °F - 17.6 °F 86% 30.28 in 10.0 mi Calm Calm - N/A   Partly Cloudy
8:16 AM 24.8 °F - 23.0 °F 93% 30.28 in 10.0 mi Calm Calm - N/A   Partly Cloudy
8:36 AM 23.0 °F - 19.4 °F 86% 30.29 in 10.0 mi Calm Calm - N/A   Partly Cloudy
8:56 AM 23.0 °F 18.4 °F 21.2 °F 93% 30.29 in 10.0 mi West 3.5 mph - N/A   Partly Cloudy
9:16 AM 24.8 °F 19.1 °F 21.2 °F 86% 30.29 in 10.0 mi WSW 4.6 mph - N/A   Partly Cloudy
9:36 AM 23.0 °F 17.0 °F 21.2 °F 93% 30.29 in 10.0 mi WSW 4.6 mph - N/A   Partly Cloudy
9:56 AM 26.6 °F - 24.8 °F 93% 30.29 in 10.0 mi Calm Calm - N/A   Partly Cloudy
10:36 AM 28.4 °F - 24.8 °F 86% 30.30 in 10.0 mi Calm Calm - N/A   Partly Cloudy
10:56 AM 30.2 °F - 26.6 °F 86% 30.31 in 10.0 mi Calm Calm - N/A   Scattered Clouds
11:36 AM 33.8 °F - 28.4 °F 81% 30.31 in 10.0 mi Calm Calm - N/A   Scattered Clouds
12:16 PM 33.8 °F - 26.6 °F 75% 30.31 in 10.0 mi Calm Calm - N/A   Scattered Clouds
12:36 PM 35.6 °F - 28.4 °F 75% 30.31 in 10.0 mi Calm Calm - N/A   Scattered Clouds
1:16 PM 35.6 °F - 26.6 °F 70% 30.32 in 10.0 mi Calm Calm - N/A   Clear
1:36 PM 35.6 °F - 26.6 °F 70% 30.32 in 10.0 mi Calm Calm - N/A   Clear
1:54 PM 35.6 °F 32.8 °F 26.6 °F 70% 30.32 in 10.0 mi NNE 3.5 mph - N/A   Clear
2:16 PM 35.6 °F 31.7 °F 26.6 °F 70% 30.32 in 10.0 mi East 4.6 mph - N/A   Clear
2:56 PM 33.8 °F 30.8 °F 24.8 °F 70% 30.32 in 10.0 mi NNE 3.5 mph - N/A   Clear
3:16 PM 32.0 °F 28.7 °F 24.8 °F 75% 30.32 in 10.0 mi SSE 3.5 mph - N/A   Clear
3:36 PM 30.2 °F - 24.8 °F 80% 30.32 in 10.0 mi Calm Calm - N/A   Clear
3:56 PM 28.4 °F 24.6 °F 23.0 °F 80% 30.32 in 10.0 mi SSW 3.5 mph - N/A   Clear
5:16 PM 28.4 °F 24.6 °F 23.0 °F 80% 30.33 in 10.0 mi SW 3.5 mph - N/A   Clear
5:36 PM 28.4 °F 24.6 °F 21.2 °F 74% 30.33 in 10.0 mi SSW 3.5 mph - N/A   Clear
5:56 PM 28.4 °F 24.6 °F 21.2 °F 74% 30.33 in 10.0 mi WSW 3.5 mph - N/A   Clear
6:36 PM 28.4 °F 23.3 °F 21.2 °F 74% 30.33 in 10.0 mi WSW 4.6 mph - N/A   Clear
6:56 PM 24.8 °F 20.5 °F 21.2 °F 86% 30.33 in 10.0 mi SW 3.5 mph - N/A   Clear
7:16 PM 26.6 °F - 21.2 °F 80% 30.33 in 10.0 mi Calm Calm - N/A   Clear
7:36 PM 26.6 °F 21.2 °F 21.2 °F 80% 30.34 in 10.0 mi WSW 4.6 mph - N/A   Clear
7:56 PM 26.6 °F - 23.0 °F 86% 30.35 in 10.0 mi Calm Calm - N/A   Clear
8:16 PM 24.8 °F 20.5 °F 19.4 °F 80% 30.35 in 10.0 mi SW 3.5 mph - N/A   Clear
8:36 PM 24.8 °F - 21.2 °F 86% 30.35 in 10.0 mi Calm Calm - N/A   Clear
10:16 PM - - - N/A% - - North - - N/A   Unknown
10:36 PM 23.0 °F - 19.4 °F 86% 30.38 in 10.0 mi Calm Calm - N/A   Clear
10:56 PM 24.8 °F 20.5 °F 21.2 °F 86% 30.38 in 10.0 mi WSW 3.5 mph - N/A   Clear
11:16 PM 26.6 °F - 19.4 °F 74% 30.38 in 10.0 mi Calm Calm - N/A   Clear
11:36 PM 24.8 °F 20.5 °F 21.2 °F 86% 30.39 in 10.0 mi SW 3.5 mph - N/A   Clear
11:56 PM 24.8 °F 20.5 °F 21.2 °F 86% 30.40 in 10.0 mi SW 3.5 mph - N/A   Clear